#timestamp,LO_Frequency,Hit,StdDev 
1550894415.8,286046998.5,N
1550894435.6,286046998.3,N
1550894455.5,286047002.4,N
1550894475.3,286047000.4,N
1550894495.2,286047001.0,N
1550894515.0,286047001.0,N
1550894515.9,286047001.0,N
1550894535.8,286046998.6,N
1550894555.6,286046998.5,N
1550894575.4,286046998.4,N
1550894595.3,286046998.7,N
1550894615.1,286047000.4,N
1550894635.8,286046999.7,N
1550894655.7,286047001.1,N
1550894675.5,286046998.1,N
1550894695.4,286046999.0,N
1550894715.2,286047000.9,N
1550894735.0,286047001.3,N
1550894735.9,286047001.3,N
1550894755.8,286047004.3,Y
1550894775.6,286047003.9,P
1550894795.5,286047001.7,N
1550894815.3,286047000.8,N
1550894835.1,286046998.3,N
1550894855.9,286046999.1,N
1550894875.7,286046998.2,N
1550894895.6,286047000.2,N
1550894915.4,286047002.5,N
1550894935.2,286047001.2,N
1550894955.1,286047000.4,N
1550894956.0,286047000.4,N
1550894975.8,286047000.8,N
1550894995.7,286046999.7,N
1550895015.5,286047002.6,N
1550895035.3,286047002.3,N
1550895055.2,286047000.5,N
1550895075.0,286047000.4,N
1550895075.9,286047000.4,N
1550895095.7,286046999.1,N
1550895115.6,286046996.7,N
1550895135.4,286046997.7,N
1550895155.3,286046997.2,N
1550895175.1,286046999.1,N
1550895195.8,286046998.7,N
1550895215.7,286046998.3,N
1550895235.5,286047000.5,N
1550895255.4,286047000.6,N
1550895275.2,286047001.7,N
1550895295.0,286047004.8,N
1550895295.9,286047004.8,N
1550895315.8,286047004.2,N
1550895335.6,286047004.1,N
1550895355.4,286047003.2,N
1550895375.3,286047003.5,N
1550895395.1,286047002.4,N
1550895415.9,286047000.3,N
1550895435.7,286047002.7,N
1550895455.5,286047000.4,N
1550895475.4,286047000.7,N
1550895495.2,286046999.9,N
1550895515.0,286047001.1,N
1550895515.9,286047001.1,N
1550895535.8,286046999.7,N
1550895555.6,286046998.6,N
1550895575.5,286047000.1,N
1550895595.4,286047002.5,N
1550895615.2,286047002.4,N
1550895635.0,286047001.9,N
1550895635.9,286047001.9,N
1550895655.8,286047003.0,N
1550895675.6,286047005.5,N
1550895695.4,286047001.8,N
1550895715.3,286047002.9,N
1550895735.1,286047002.3,N
1550895755.9,286047002.6,N
1550895775.7,286047000.0,N
1550895795.5,286047001.1,N
1550895815.4,286047000.3,N
1550895835.2,286047001.8,N
1550895855.0,286047002.7,N
1550895855.9,286047002.7,N
1550895875.8,286047002.7,N
1550895895.6,286047002.5,N
1550895915.5,286047004.3,Y
1550895935.3,286046998.6,P
1550895955.1,286047000.7,N
1550895975.4,286047001.0,N
1550895995.3,286047000.6,N
1550896015.1,286047000.1,N
1550896016.0,286047000.1,N
1550896035.8,286046999.7,N
1550896055.7,286046998.1,N
1550896075.5,286047000.0,N
1550896095.3,286047004.3,Y
1550896115.2,286046999.7,P
1550896135.0,286047001.1,P
1550896135.9,286047001.1,N
1550896155.8,286047000.7,N
1550896175.6,286047001.1,N
1550896195.4,286046998.4,N
1550896215.3,286046998.3,N
1550896235.1,286046999.9,N
1550896255.9,286047002.7,N
1550896275.7,286047000.0,N
1550896295.5,286047003.6,N
1550896315.4,286047005.8,Y
1550896335.2,286047002.6,P
1550896355.0,286047001.0,N
1550896355.9,286047001.0,N
1550896375.8,286047000.2,N
1550896395.6,286046999.5,N
1550896415.5,286047001.2,N
1550896435.3,286046996.8,Y
1550896455.1,286046996.1,P
1550896475.9,286046993.3,N
1550896495.7,286046994.1,N
1550896515.6,286046996.4,N
1550896535.4,286046996.1,N
1550896555.2,286046995.5,N
1550896575.1,286046997.0,N
1550896576.0,286046997.0,N
1550896595.8,286046997.1,N
1550896615.6,286046997.0,N
1550896635.1,286046998.4,N
1550896636.0,286046998.4,N
1550896655.8,286046999.7,N
1550896675.7,286047002.1,N
1550896695.5,286046999.8,N
1550896715.4,286047000.6,N
1550896735.2,286047000.5,N
1550896755.0,286047002.8,N
1550896755.9,286047002.8,N
1550896775.8,286047001.5,N
1550896795.6,286047001.8,N
1550896815.5,286047003.9,N
1550896835.3,286047004.3,N
1550896855.1,286047000.1,N
1550896875.9,286047002.6,N
1550896895.7,286047001.0,N
1550896915.5,286046998.4,N
1550896935.4,286047001.2,N
1550896955.2,286046999.0,N
1550896975.1,286046998.6,N
1550896976.0,286046998.6,N
1550896995.8,286046998.3,N
1550897015.6,286046998.1,N
1550897035.5,286047000.4,N
1550897055.3,286047002.8,N
1550897075.1,286046999.1,N
1550897095.9,286047002.7,N
1550897115.7,286047000.8,N
1550897135.6,286046998.9,N
1550897155.4,286046999.8,N
1550897175.2,286046996.8,N
1550897195.1,286046997.7,N
1550897196.0,286046997.7,N
1550897215.8,286046997.2,N
1550897235.6,286046999.5,N
1550897255.5,286046996.6,N
1550897275.3,286046996.5,N
1550897295.2,286046997.7,N
1550897315.9,286046997.4,N
1550897335.7,286046999.2,N
1550897355.6,286047001.1,N
1550897375.4,286047001.1,N
1550897395.2,286046998.4,N
1550897415.1,286046998.1,N
1550897416.0,286046998.1,N
1550897435.8,286047001.2,N
1550897455.7,286047000.8,N
1550897475.5,286046998.4,N
1550897495.3,286047000.8,N
1550897515.2,286046996.9,N
1550897535.0,286046999.6,N
1550897535.9,286046999.6,N
1550897555.8,286046996.6,N
1550897575.6,286046996.7,N
1550897595.4,286046996.8,N
1550897615.3,286046998.3,N
1550897635.1,286046998.1,N
1550897655.8,286046999.8,N
1550897675.7,286047002.1,N
1550897695.5,286047002.8,N
1550897715.4,286047002.3,N
1550897735.2,286046998.9,N
1550897755.0,286046999.1,N
1550897755.9,286046999.1,N
1550897775.8,286046999.3,N
1550897795.6,286046998.7,N
1550897815.9,286047002.5,N
1550897835.7,286047001.9,N
1550897855.6,286047002.5,N
1550897875.4,286047000.4,N
1550897895.2,286046998.5,N
1550897915.1,286046999.9,N
1550897916.0,286046999.9,N
1550897935.8,286047000.6,N
1550897955.6,286047000.8,N
1550897975.5,286046998.9,N
1550897995.3,286046997.1,N
